Date_Time,Julian_Date,Latitude,Longitude,Instrument_Depth,U,V,Speed,Direction
(yyyy-mm-dd hh:mn:ss UTC),(JD),(+ deg. North),(+ deg. East),(m),(cm/s),(cm/s),(cm/s),(deg True)
1993-03-19 04:15:00 UTC,2449065.677083,28.9622,-91.9833,0019,-17.23,2.73,17.4449,279.0034
1993-03-19 04:20:00 UTC,2449065.680556,28.9622,-91.9833,0019,-16.80,1.79,16.8951,276.0818
1993-03-19 04:25:00 UTC,2449065.684028,28.9622,-91.9833,0019,-15.07,2.94,15.3541,281.0392
1993-03-19 04:30:00 UTC,2449065.687500,28.9622,-91.9833,0019,-15.42,4.08,15.9506,284.8204
1993-03-19 04:35:00 UTC,2449065.690972,28.9622,-91.9833,0019,-15.77,7.02,17.2619,293.9962
1993-03-19 04:40:00 UTC,2449065.694444,28.9622,-91.9833,0019,-18.94,5.21,19.6435,285.3805
1993-03-19 04:45:00 UTC,2449065.697917,28.9622,-91.9833,0019,-19.23,3.39,19.5265,279.9978
1993-03-19 04:50:00 UTC,2449065.701389,28.9622,-91.9833,0019,-16.09,4.61,16.7374,285.9877
1993-03-19 04:55:00 UTC,2449065.704861,28.9622,-91.9833,0019,-15.97,3.69,16.3908,283.0103
1993-03-19 05:00:00 UTC,2449065.708333,28.9622,-91.9833,0019,-17.79,7.19,19.1880,292.0066
1993-03-19 05:05:00 UTC,2449065.711806,28.9622,-91.9833,0019,-17.05,5.91,18.0452,289.1177
1993-03-19 05:10:00 UTC,2449065.715278,28.9622,-91.9833,0019,-16.31,3.77,16.7400,283.0151
1993-03-19 05:15:00 UTC,2449065.718750,28.9622,-91.9833,0019,-16.72,3.55,17.0927,281.9871
1993-03-19 05:20:00 UTC,2449065.722222,28.9622,-91.9833,0019,-17.94,4.47,18.4885,283.9911
1993-03-19 05:25:00 UTC,2449065.725694,28.9622,-91.9833,0019,-19.01,5.81,19.8780,286.9947
1993-03-19 05:30:00 UTC,2449065.729167,28.9622,-91.9833,0019,-18.11,5.19,18.8390,285.9914
1993-03-19 05:35:00 UTC,2449065.732639,28.9622,-91.9833,0019,-16.38,2.85,16.6261,279.8702
1993-03-19 05:40:00 UTC,2449065.736111,28.9622,-91.9833,0019,-14.64,0.51,14.6489,271.9951
1993-03-19 05:45:00 UTC,2449065.739583,28.9622,-91.9833,0019,-16.96,2.08,17.0871,276.9919
1993-03-19 05:50:00 UTC,2449065.743056,28.9622,-91.9833,0019,-16.30,4.30,16.8576,284.7782
1993-03-19 05:55:00 UTC,2449065.746528,28.9622,-91.9833,0019,-15.64,3.61,16.0512,282.9973
1993-03-19 06:00:00 UTC,2449065.750000,28.9622,-91.9833,0019,-14.92,1.57,15.0024,276.0070
1993-03-19 06:05:00 UTC,2449065.753472,28.9622,-91.9833,0019,-14.06,2.02,14.2044,278.1758
1993-03-19 06:10:00 UTC,2449065.756944,28.9622,-91.9833,0019,-13.20,3.29,13.6038,283.9954
1993-03-19 06:15:00 UTC,2449065.760417,28.9622,-91.9833,0019,-13.76,3.18,14.1227,283.0129
1993-03-19 06:20:00 UTC,2449065.763889,28.9622,-91.9833,0019,-14.54,1.79,14.6498,277.0183
1993-03-19 06:25:00 UTC,2449065.767361,28.9622,-91.9833,0019,-14.76,4.23,15.3542,285.9915
1993-03-19 06:30:00 UTC,2449065.770833,28.9622,-91.9833,0019,-13.74,2.42,13.9515,279.9890
1993-03-19 06:35:00 UTC,2449065.774306,28.9622,-91.9833,0019,-12.97,1.53,13.0599,276.7278
1993-03-19 06:40:00 UTC,2449065.777778,28.9622,-91.9833,0019,-12.19,0.64,12.2068,273.0054
1993-03-19 06:45:00 UTC,2449065.781250,28.9622,-91.9833,0019,-9.76,0.51,9.7733,272.9912
1993-03-19 06:50:00 UTC,2449065.784722,28.9622,-91.9833,0019,-10.78,-0.75,10.8061,266.0202
1993-03-19 06:55:00 UTC,2449065.788194,28.9622,-91.9833,0019,-13.43,2.13,13.5979,279.0121
1993-03-19 07:00:00 UTC,2449065.791667,28.9622,-91.9833,0019,-13.39,2.36,13.5964,279.9958
1993-03-19 07:05:00 UTC,2449065.795139,28.9622,-91.9833,0019,-10.38,1.27,10.4574,276.9755
1993-03-19 07:10:00 UTC,2449065.798611,28.9622,-91.9833,0019,-10.38,-1.27,10.4574,263.0245
1993-03-19 07:15:00 UTC,2449065.802083,28.9622,-91.9833,0019,-10.43,-0.73,10.4555,265.9964
1993-03-19 07:20:00 UTC,2449065.805556,28.9622,-91.9833,0019,-12.19,-3.04,12.5633,255.9969
1993-03-19 07:25:00 UTC,2449065.809028,28.9622,-91.9833,0019,-11.02,-1.75,11.1581,260.9767
1993-03-19 07:30:00 UTC,2449065.812500,28.9622,-91.9833,0019,-9.77,-1.62,9.9034,260.5852
1993-03-19 07:35:00 UTC,2449065.815972,28.9622,-91.9833,0019,-12.12,-1.49,12.2112,262.9914
1993-03-19 07:40:00 UTC,2449065.819444,28.9622,-91.9833,0019,-11.51,-2.87,11.8624,255.9989
1993-03-19 07:45:00 UTC,2449065.822917,28.9622,-91.9833,0019,-9.12,-3.50,9.7685,249.0046
1993-03-19 07:50:00 UTC,2449065.826389,28.9622,-91.9833,0019,-9.77,-3.75,10.4650,249.0018
1993-03-19 07:55:00 UTC,2449065.829861,28.9622,-91.9833,0019,-8.30,-4.05,9.2354,243.9899
1993-03-19 08:00:00 UTC,2449065.833333,28.9622,-91.9833,0019,-7.38,-3.13,8.0163,247.0173
1993-03-19 08:05:00 UTC,2449065.836806,28.9622,-91.9833,0019,-7.88,-2.26,8.1977,253.9970
1993-03-19 08:10:00 UTC,2449065.840278,28.9622,-91.9833,0019,-7.62,-3.24,8.2802,246.9650
1993-03-19 08:15:00 UTC,2449065.843750,28.9622,-91.9833,0019,-7.50,-3.18,8.1463,247.0231
1993-03-19 08:20:00 UTC,2449065.847222,28.9622,-91.9833,0019,-6.12,-3.82,7.2143,238.0283
1993-03-19 08:25:00 UTC,2449065.850694,28.9622,-91.9833,0019,-7.61,-0.27,7.6148,267.9680
1993-03-19 08:30:00 UTC,2449065.854167,28.9622,-91.9833,0019,-7.81,0.27,7.8147,271.9800
1993-03-19 08:35:00 UTC,2449065.857639,28.9622,-91.9833,0019,-7.29,-3.09,7.9178,247.0294
1993-03-19 08:40:00 UTC,2449065.861111,28.9622,-91.9833,0019,-6.84,-6.97,9.7656,224.4607
1993-03-19 08:45:00 UTC,2449065.864583,28.9622,-91.9833,0019,-6.13,-5.38,8.1561,228.7282
1993-03-19 08:50:00 UTC,2449065.868056,28.9622,-91.9833,0019,-5.42,-3.79,6.6137,235.0364
1993-03-19 08:55:00 UTC,2449065.871528,28.9622,-91.9833,0019,-5.20,-2.75,5.8824,242.1281
1993-03-19 09:00:00 UTC,2449065.875000,28.9622,-91.9833,0019,-4.97,-3.23,5.9274,236.9802
1993-03-19 09:05:00 UTC,2449065.878472,28.9622,-91.9833,0019,-4.41,-3.70,5.7566,230.0033
1993-03-19 09:10:00 UTC,2449065.881944,28.9622,-91.9833,0019,-4.78,-2.87,5.5754,239.0186
1993-03-19 09:15:00 UTC,2449065.885417,28.9622,-91.9833,0019,-3.98,-3.59,5.3599,227.9492
1993-03-19 09:20:00 UTC,2449065.888889,28.9622,-91.9833,0019,-4.03,-3.26,5.1835,231.0295
1993-03-19 09:25:00 UTC,2449065.892361,28.9622,-91.9833,0019,-4.28,-3.47,5.5099,230.9667
1993-03-19 09:30:00 UTC,2449065.895833,28.9622,-91.9833,0019,-4.77,-3.68,6.0246,232.3502
1993-03-19 09:35:00 UTC,2449065.899306,28.9622,-91.9833,0019,-5.25,-3.82,6.4927,233.9597
1993-03-19 09:40:00 UTC,2449065.902778,28.9622,-91.9833,0019,-6.00,-3.89,7.1507,237.0433
1993-03-19 09:45:00 UTC,2449065.906250,28.9622,-91.9833,0019,-6.57,-4.60,8.0203,235.0021
1993-03-19 09:50:00 UTC,2449065.909722,28.9622,-91.9833,0019,-9.17,-4.28,10.1196,244.9797
1993-03-19 09:55:00 UTC,2449065.913194,28.9622,-91.9833,0019,-6.27,-4.74,7.8601,232.9114
1993-03-19 10:00:00 UTC,2449065.916667,28.9622,-91.9833,0019,-8.76,-5.20,10.1871,239.3063
1993-03-19 10:05:00 UTC,2449065.920139,28.9622,-91.9833,0019,-11.26,-2.39,11.5109,258.0165
1993-03-19 10:10:00 UTC,2449065.923611,28.9622,-91.9833,0019,-10.70,-1.50,10.8046,262.0199
1993-03-19 10:15:00 UTC,2449065.927083,28.9622,-91.9833,0019,-10.81,-0.19,10.8117,268.9931
1993-03-19 10:20:00 UTC,2449065.930556,28.9622,-91.9833,0019,-9.76,0.34,9.7659,271.9951
1993-03-19 10:25:00 UTC,2449065.934028,28.9622,-91.9833,0019,-9.35,-1.15,9.4205,262.9882
1993-03-19 10:30:00 UTC,2449065.937500,28.9622,-91.9833,0019,-9.93,-1.93,10.1158,259.0011
1993-03-19 10:35:00 UTC,2449065.940972,28.9622,-91.9833,0019,-11.47,1.00,11.5135,274.9827
1993-03-19 10:40:00 UTC,2449065.944444,28.9622,-91.9833,0019,-10.10,-0.71,10.1249,265.9789
1993-03-19 10:45:00 UTC,2449065.947917,28.9622,-91.9833,0019,-9.33,-1.31,9.4215,262.0075
1993-03-19 10:50:00 UTC,2449065.951389,28.9622,-91.9833,0019,-7.82,-3.41,8.5311,246.4398
1993-03-19 10:55:00 UTC,2449065.954861,28.9622,-91.9833,0019,-6.31,-5.52,8.3837,228.8205
1993-03-19 11:00:00 UTC,2449065.958333,28.9622,-91.9833,0019,-10.08,-0.88,10.1183,265.0107
1993-03-19 11:05:00 UTC,2449065.961806,28.9622,-91.9833,0019,-10.42,0.91,10.4597,274.9911
1993-03-19 11:10:00 UTC,2449065.965278,28.9622,-91.9833,0019,-10.46,-0.00,10.4600,270.0000
1993-03-19 11:15:00 UTC,2449065.968750,28.9622,-91.9833,0019,-11.20,-1.77,11.3390,261.0195
1993-03-19 11:20:00 UTC,2449065.972222,28.9622,-91.9833,0019,-11.07,-0.39,11.0769,267.9823
1993-03-19 11:25:00 UTC,2449065.975694,28.9622,-91.9833,0019,-10.57,2.25,10.8068,282.0170
1993-03-19 11:30:00 UTC,2449065.979167,28.9622,-91.9833,0019,-10.11,0.35,10.1161,271.9827
1993-03-19 11:35:00 UTC,2449065.982639,28.9622,-91.9833,0019,-9.00,1.11,9.0682,277.0310
1993-03-19 11:40:00 UTC,2449065.986111,28.9622,-91.9833,0019,-10.11,0.35,10.1161,271.9827
1993-03-19 11:45:00 UTC,2449065.989583,28.9622,-91.9833,0019,-9.97,1.76,10.1242,280.0113
1993-03-19 11:50:00 UTC,2449065.993056,28.9622,-91.9833,0019,-8.87,1.89,9.0691,282.0286
1993-03-19 11:55:00 UTC,2449065.996528,28.9622,-91.9833,0019,-8.58,2.95,9.0730,288.9742
1993-03-19 12:00:00 UTC,2449066.000000,28.9622,-91.9833,0019,-8.73,3.53,9.4167,292.0161
1993-03-19 12:05:00 UTC,2449066.003472,28.9622,-91.9833,0019,-9.25,4.12,10.1260,294.0085
1993-03-19 12:10:00 UTC,2449066.006944,28.9622,-91.9833,0019,-8.46,4.89,9.7716,300.0285
1993-03-19 12:15:00 UTC,2449066.010417,28.9622,-91.9833,0019,-8.97,6.29,10.9556,305.0392
1993-03-19 12:20:00 UTC,2449066.013889,28.9622,-91.9833,0019,-9.47,7.14,11.8600,307.0148
1993-03-19 12:25:00 UTC,2449066.017361,28.9622,-91.9833,0019,-9.09,7.62,11.8614,309.9726
1993-03-19 12:30:00 UTC,2449066.020833,28.9622,-91.9833,0019,-8.82,7.40,11.5131,309.9967
1993-03-19 12:35:00 UTC,2449066.024306,28.9622,-91.9833,0019,-8.42,7.85,11.5117,312.9935
1993-03-19 12:40:00 UTC,2449066.027778,28.9622,-91.9833,0019,-9.54,6.44,11.5102,304.0214
1993-03-19 12:45:00 UTC,2449066.031250,28.9622,-91.9833,0019,-10.27,11.40,15.3438,317.9850
1993-03-19 12:50:00 UTC,2449066.034722,28.9622,-91.9833,0019,-10.99,7.41,13.2547,303.9898
1993-03-19 12:55:00 UTC,2449066.038194,28.9622,-91.9833,0019,-10.70,7.22,12.9081,304.0102
1993-03-19 13:00:00 UTC,2449066.041667,28.9622,-91.9833,0019,-10.77,6.47,12.5640,300.9951
1993-03-19 13:05:00 UTC,2449066.045139,28.9622,-91.9833,0019,-11.05,4.97,12.1162,294.2170
1993-03-19 13:10:00 UTC,2449066.048611,28.9622,-91.9833,0019,-11.34,3.47,11.8590,287.0139
1993-03-19 13:15:00 UTC,2449066.052083,28.9622,-91.9833,0019,-9.99,6.05,11.6792,301.1993
1993-03-19 13:20:00 UTC,2449066.055556,28.9622,-91.9833,0019,-10.50,8.63,13.5914,309.4170
1993-03-19 13:25:00 UTC,2449066.059028,28.9622,-91.9833,0019,-11.00,6.63,12.8436,301.0785
1993-03-19 13:30:00 UTC,2449066.062500,28.9622,-91.9833,0019,-10.92,6.91,12.9226,302.3250
1993-03-19 13:35:00 UTC,2449066.065972,28.9622,-91.9833,0019,-9.88,7.18,12.2134,306.0067
1993-03-19 13:40:00 UTC,2449066.069444,28.9622,-91.9833,0019,-12.81,7.10,14.6460,298.9976
1993-03-19 13:45:00 UTC,2449066.072917,28.9622,-91.9833,0019,-10.46,9.75,14.2994,312.9880
1993-03-19 13:50:00 UTC,2449066.076389,28.9622,-91.9833,0019,-11.85,8.61,14.6477,306.0015
1993-03-19 13:55:00 UTC,2449066.079861,28.9622,-91.9833,0019,-12.29,7.98,14.6535,302.9960
1993-03-19 14:00:00 UTC,2449066.083333,28.9622,-91.9833,0019,-13.29,7.68,15.3495,300.0227
1993-03-19 14:05:00 UTC,2449066.086806,28.9622,-91.9833,0019,-10.26,9.37,13.8948,312.4041
1993-03-19 14:10:00 UTC,2449066.090278,28.9622,-91.9833,0019,-11.17,11.07,15.7262,314.7424
1993-03-19 14:15:00 UTC,2449066.093750,28.9622,-91.9833,0019,-12.08,12.08,17.0837,315.0000
1993-03-19 14:20:00 UTC,2449066.097222,28.9622,-91.9833,0019,-12.37,10.75,16.3884,310.9919
1993-03-19 14:25:00 UTC,2449066.100694,28.9622,-91.9833,0019,-12.60,12.75,17.9255,315.3390
1993-03-19 14:30:00 UTC,2449066.104167,28.9622,-91.9833,0019,-12.82,10.76,16.7371,310.0072
1993-03-19 14:35:00 UTC,2449066.107639,28.9622,-91.9833,0019,-10.97,10.32,15.0613,313.2513
1993-03-19 14:40:00 UTC,2449066.111111,28.9622,-91.9833,0019,-12.65,9.88,16.0511,307.9908
1993-03-19 14:45:00 UTC,2449066.114583,28.9622,-91.9833,0019,-12.83,10.76,16.7447,309.9852
1993-03-19 14:50:00 UTC,2449066.118056,28.9622,-91.9833,0019,-11.06,11.86,16.2168,316.9991
1993-03-19 14:55:00 UTC,2449066.121528,28.9622,-91.9833,0019,-11.29,10.91,15.7001,314.0193
1993-03-19 15:00:00 UTC,2449066.125000,28.9622,-91.9833,0019,-12.12,11.30,16.5706,312.9948
1993-03-19 15:05:00 UTC,2449066.128472,28.9622,-91.9833,0019,-11.53,12.14,16.7428,316.4763
1993-03-19 15:10:00 UTC,2449066.131944,28.9622,-91.9833,0019,-9.43,11.68,15.0116,321.0839
1993-03-19 15:15:00 UTC,2449066.135417,28.9622,-91.9833,0019,-10.03,11.74,15.4411,319.4913
1993-03-19 15:20:00 UTC,2449066.138889,28.9622,-91.9833,0019,-10.62,11.79,15.8678,317.9886
1993-03-19 15:25:00 UTC,2449066.142361,28.9622,-91.9833,0019,-10.54,12.56,16.3965,319.9976
1993-03-19 15:30:00 UTC,2449066.145833,28.9622,-91.9833,0019,-9.64,11.49,14.9983,320.0037
1993-03-19 15:35:00 UTC,2449066.149306,28.9622,-91.9833,0019,-7.80,11.14,13.5992,325.0011
1993-03-19 15:40:00 UTC,2449066.152778,28.9622,-91.9833,0019,-8.20,11.29,13.9536,324.0089
1993-03-19 15:45:00 UTC,2449066.156250,28.9622,-91.9833,0019,-9.62,9.62,13.6047,315.0000
1993-03-19 15:50:00 UTC,2449066.159722,28.9622,-91.9833,0019,-9.66,11.93,15.3506,321.0021
1993-03-19 15:55:00 UTC,2449066.163194,28.9622,-91.9833,0019,-8.75,12.20,15.0134,324.3514
1993-03-19 16:00:00 UTC,2449066.166667,28.9622,-91.9833,0019,-7.85,9.35,12.2084,319.9841
1993-03-19 16:05:00 UTC,2449066.170139,28.9622,-91.9833,0019,-7.38,10.16,12.5575,324.0062
1993-03-19 16:10:00 UTC,2449066.173611,28.9622,-91.9833,0019,-7.40,6.90,10.1178,312.9975
1993-03-19 16:15:00 UTC,2449066.177083,28.9622,-91.9833,0019,-7.77,7.77,10.9884,315.0000
1993-03-19 16:20:00 UTC,2449066.180556,28.9622,-91.9833,0019,-7.62,9.09,11.8614,320.0274
1993-03-19 16:25:00 UTC,2449066.184028,28.9622,-91.9833,0019,-7.17,8.55,11.1585,320.0169
1993-03-19 16:30:00 UTC,2449066.187500,28.9622,-91.9833,0019,-4.81,7.69,9.0704,327.9745
1993-03-19 16:35:00 UTC,2449066.190972,28.9622,-91.9833,0019,-7.15,6.66,9.7713,312.9679
1993-03-19 16:40:00 UTC,2449066.194444,28.9622,-91.9833,0019,-5.33,7.34,9.0711,324.0144
1993-03-19 16:45:00 UTC,2449066.197917,28.9622,-91.9833,0019,-4.56,7.02,8.3710,326.9933
1993-03-19 16:50:00 UTC,2449066.201389,28.9622,-91.9833,0019,-5.95,6.38,8.7239,316.9973
1993-03-19 16:55:00 UTC,2449066.204861,28.9622,-91.9833,0019,-3.38,6.10,6.9738,331.0092
1993-03-19 17:00:00 UTC,2449066.208333,28.9622,-91.9833,0019,-4.09,7.70,8.7188,332.0242
1993-03-19 17:05:00 UTC,2449066.211806,28.9622,-91.9833,0019,-5.81,7.48,9.4714,322.1622
1993-03-19 17:10:00 UTC,2449066.215278,28.9622,-91.9833,0019,-7.52,7.27,10.4596,314.0316
1993-03-19 17:15:00 UTC,2449066.218750,28.9622,-91.9833,0019,-7.15,6.66,9.7713,312.9679
1993-03-19 17:20:00 UTC,2449066.222222,28.9622,-91.9833,0019,-6.02,7.70,9.7740,321.9810
1993-03-19 17:25:00 UTC,2449066.225694,28.9622,-91.9833,0019,-7.01,7.21,10.0561,315.8058
1993-03-19 17:30:00 UTC,2449066.229167,28.9622,-91.9833,0019,-8.01,6.72,10.4555,309.9950
1993-03-19 17:35:00 UTC,2449066.232639,28.9622,-91.9833,0019,-7.89,7.89,11.1581,315.0000
1993-03-19 17:40:00 UTC,2449066.236111,28.9622,-91.9833,0019,-7.89,6.86,10.4552,311.0055
1993-03-19 17:45:00 UTC,2449066.239583,28.9622,-91.9833,0019,-8.46,6.15,10.4592,306.0153
1993-03-19 17:50:00 UTC,2449066.243056,28.9622,-91.9833,0019,-8.06,4.75,9.3555,300.5121
1993-03-19 17:55:00 UTC,2449066.246528,28.9622,-91.9833,0019,-7.66,5.77,9.5900,306.9894
1993-03-19 18:00:00 UTC,2449066.250000,28.9622,-91.9833,0019,-6.94,5.42,8.8057,307.9891
1993-03-19 18:05:00 UTC,2449066.253472,28.9622,-91.9833,0019,-7.33,3.26,8.0223,293.9770
1993-03-19 18:10:00 UTC,2449066.256944,28.9622,-91.9833,0019,-6.95,4.01,8.0239,299.9840
1993-03-19 18:15:00 UTC,2449066.260417,28.9622,-91.9833,0019,-5.98,3.59,6.9748,300.9778
1993-03-19 18:20:00 UTC,2449066.263889,28.9622,-91.9833,0019,-5.91,3.01,6.6324,296.9900
1993-03-19 18:25:00 UTC,2449066.267361,28.9622,-91.9833,0019,-5.79,3.90,6.9810,303.9632
1993-03-19 18:30:00 UTC,2449066.270833,28.9622,-91.9833,0019,-4.52,4.85,6.6297,317.0171
1993-03-19 18:35:00 UTC,2449066.274306,28.9622,-91.9833,0019,-5.27,4.58,6.9821,310.9929
1993-03-19 18:40:00 UTC,2449066.277778,28.9622,-91.9833,0019,-5.27,4.58,6.9821,310.9929
1993-03-19 18:45:00 UTC,2449066.281250,28.9622,-91.9833,0019,-6.08,4.10,7.3332,303.9934
1993-03-19 18:50:00 UTC,2449066.284722,28.9622,-91.9833,0019,-6.08,4.10,7.3332,303.9934
1993-03-19 18:55:00 UTC,2449066.288194,28.9622,-91.9833,0019,-5.99,4.10,7.2588,304.3906
1993-03-19 19:00:00 UTC,2449066.291667,28.9622,-91.9833,0019,-5.91,4.10,7.1929,304.7506
1993-03-19 19:05:00 UTC,2449066.295139,28.9622,-91.9833,0019,-5.62,3.32,6.5274,300.5724
1993-03-19 19:10:00 UTC,2449066.298611,28.9622,-91.9833,0019,-5.33,2.60,5.9303,296.0034
1993-03-19 19:15:00 UTC,2449066.302083,28.9622,-91.9833,0019,-5.17,2.09,5.5765,292.0113
1993-03-19 19:20:00 UTC,2449066.305556,28.9622,-91.9833,0019,-4.27,2.37,4.8836,299.0318
1993-03-19 19:25:00 UTC,2449066.309028,28.9622,-91.9833,0019,-4.18,2.22,4.7329,297.9728
1993-03-19 19:30:00 UTC,2449066.312500,28.9622,-91.9833,0019,-4.09,2.66,4.8789,303.0386
1993-03-19 19:35:00 UTC,2449066.315972,28.9622,-91.9833,0019,-4.31,2.24,4.8573,297.4619
1993-03-19 19:40:00 UTC,2449066.319444,28.9622,-91.9833,0019,-4.52,1.83,4.8764,292.0414
1993-03-19 19:45:00 UTC,2449066.322917,28.9622,-91.9833,0019,-4.20,1.70,4.5310,292.0362
1993-03-19 19:50:00 UTC,2449066.326389,28.9622,-91.9833,0019,-3.96,1.36,4.1870,288.9542
1993-03-19 19:55:00 UTC,2449066.329861,28.9622,-91.9833,0019,-3.76,1.84,4.1861,296.0754
1993-03-19 20:00:00 UTC,2449066.333333,28.9622,-91.9833,0019,-3.56,1.44,3.8402,292.0231
1993-03-19 20:05:00 UTC,2449066.336806,28.9622,-91.9833,0019,-3.76,0.80,3.8442,282.0115
1993-03-19 20:10:00 UTC,2449066.340278,28.9622,-91.9833,0019,-3.41,0.73,3.4873,282.0833
1993-03-19 20:15:00 UTC,2449066.343750,28.9622,-91.9833,0019,-3.10,0.11,3.1020,272.0322
1993-03-19 20:20:00 UTC,2449066.347222,28.9622,-91.9833,0019,-2.79,-0.10,2.7918,267.9473
1993-03-19 20:25:00 UTC,2449066.350694,28.9622,-91.9833,0019,-3.39,0.84,3.4925,283.9169
1993-03-19 20:30:00 UTC,2449066.354167,28.9622,-91.9833,0019,-3.06,0.71,3.1413,283.0630
1993-03-19 20:35:00 UTC,2449066.357639,28.9622,-91.9833,0019,-3.49,0.18,3.4946,272.9525
1993-03-19 20:40:00 UTC,2449066.361111,28.9622,-91.9833,0019,-2.79,-0.00,2.7900,270.0000
1993-03-19 20:45:00 UTC,2449066.364583,28.9622,-91.9833,0019,-2.44,-0.00,2.4400,270.0000
1993-03-19 20:50:00 UTC,2449066.368056,28.9622,-91.9833,0019,-2.69,-0.72,2.7847,255.0156
1993-03-19 20:55:00 UTC,2449066.371528,28.9622,-91.9833,0019,-2.29,-0.82,2.4324,250.2986
1993-03-19 21:00:00 UTC,2449066.375000,28.9622,-91.9833,0019,-1.88,-0.92,2.0930,243.9247
1993-03-19 21:05:00 UTC,2449066.378472,28.9622,-91.9833,0019,-1.38,-1.07,1.7462,232.2114
1993-03-19 21:10:00 UTC,2449066.381944,28.9622,-91.9833,0019,-1.63,-1.02,1.9228,237.9630
1993-03-19 21:15:00 UTC,2449066.385417,28.9622,-91.9833,0019,-1.83,-1.48,2.3536,231.0360
1993-03-19 21:20:00 UTC,2449066.388889,28.9622,-91.9833,0019,-2.29,-1.60,2.7936,235.0584
1993-03-19 21:25:00 UTC,2449066.392361,28.9622,-91.9833,0019,-3.15,-2.20,3.8422,235.0691
1993-03-19 21:30:00 UTC,2449066.395833,28.9622,-91.9833,0019,-3.49,-2.60,4.3520,233.3144
1993-03-19 21:35:00 UTC,2449066.399306,28.9622,-91.9833,0019,-2.96,-2.40,3.8107,230.9645
1993-03-19 21:40:00 UTC,2449066.402778,28.9622,-91.9833,0019,-2.42,-2.51,3.4866,223.9541
1993-03-19 21:45:00 UTC,2449066.406250,28.9622,-91.9833,0019,-1.95,-2.23,2.9623,221.1677
1993-03-19 21:50:00 UTC,2449066.409722,28.9622,-91.9833,0019,-1.47,-1.95,2.4420,217.0107
1993-03-19 21:55:00 UTC,2449066.413194,28.9622,-91.9833,0019,-1.07,-2.19,2.4374,206.0394
1993-03-19 22:00:00 UTC,2449066.416667,28.9622,-91.9833,0019,-1.06,-2.63,2.8356,201.9515
1993-03-19 22:05:00 UTC,2449066.420139,28.9622,-91.9833,0019,-1.05,-2.59,2.7947,202.0679
1993-03-19 22:10:00 UTC,2449066.423611,28.9622,-91.9833,0019,-0.82,-2.67,2.7931,197.0726
1993-03-19 22:15:00 UTC,2449066.427083,28.9622,-91.9833,0019,-0.65,-3.07,3.1381,191.9545
1993-03-19 22:20:00 UTC,2449066.430556,28.9622,-91.9833,0019,-0.80,-3.76,3.8442,192.0115
1993-03-19 22:25:00 UTC,2449066.434028,28.9622,-91.9833,0019,-0.84,-3.39,3.4925,193.9169
1993-03-19 22:30:00 UTC,2449066.437500,28.9622,-91.9833,0019,-0.93,-3.73,3.8442,194.0001
1993-03-19 22:35:00 UTC,2449066.440972,28.9622,-91.9833,0019,-0.73,-4.13,4.1940,190.0238
1993-03-19 22:40:00 UTC,2449066.444444,28.9622,-91.9833,0019,-0.39,-4.51,4.5268,184.9423
1993-03-19 22:45:00 UTC,2449066.447917,28.9622,-91.9833,0019,-0.22,-4.18,4.1858,183.0128
1993-03-19 22:50:00 UTC,2449066.451389,28.9622,-91.9833,0019,-0.55,-4.50,4.5335,186.9683
1993-03-19 22:55:00 UTC,2449066.454861,28.9622,-91.9833,0019,-0.16,-4.70,4.7027,181.9498
1993-03-19 23:00:00 UTC,2449066.458333,28.9622,-91.9833,0019,-0.76,-4.82,4.8795,188.9604
1993-03-19 23:05:00 UTC,2449066.461806,28.9622,-91.9833,0019,-0.26,-4.87,4.8769,183.0560
1993-03-19 23:10:00 UTC,2449066.465278,28.9622,-91.9833,0019,-0.82,-5.17,5.2346,189.0125
1993-03-19 23:15:00 UTC,2449066.468750,28.9622,-91.9833,0019,0.10,-5.58,5.5809,178.9733
1993-03-19 23:20:00 UTC,2449066.472222,28.9622,-91.9833,0019,-0.52,-5.91,5.9328,185.0283
1993-03-19 23:25:00 UTC,2449066.475694,28.9622,-91.9833,0019,-0.62,-5.90,5.9325,185.9989
1993-03-19 23:30:00 UTC,2449066.479167,28.9622,-91.9833,0019,-0.52,-5.91,5.9328,185.0283
1993-03-19 23:35:00 UTC,2449066.482639,28.9622,-91.9833,0019,-0.49,-5.56,5.5816,185.0365
1993-03-19 23:40:00 UTC,2449066.486111,28.9622,-91.9833,0019,-0.22,-6.28,6.2839,182.0064
1993-03-19 23:45:00 UTC,2449066.489583,28.9622,-91.9833,0019,-1.15,-6.53,6.6305,189.9880
1993-03-19 23:50:00 UTC,2449066.493056,28.9622,-91.9833,0019,-0.19,-5.58,5.5832,181.9502
1993-03-19 23:55:00 UTC,2449066.496528,28.9622,-91.9833,0019,-0.10,-6.28,6.2808,180.9123
1993-03-20 00:00:00 UTC,2449066.500000,28.9622,-91.9833,0019,0.00,-6.98,6.9800,180.0000
1993-03-20 00:05:00 UTC,2449066.503472,28.9622,-91.9833,0019,-0.24,-6.98,6.9841,181.9693
1993-03-20 00:10:00 UTC,2449066.506944,28.9622,-91.9833,0019,-0.55,-6.26,6.2841,185.0211
1993-03-20 00:15:00 UTC,2449066.510417,28.9622,-91.9833,0019,-1.33,-5.78,5.9310,192.9584
1993-03-20 00:20:00 UTC,2449066.513889,28.9622,-91.9833,0019,-1.63,-5.70,5.9285,195.9587
1993-03-20 00:25:00 UTC,2449066.517361,28.9622,-91.9833,0019,-1.70,-4.95,5.2338,198.9542
1993-03-20 00:30:00 UTC,2449066.520833,28.9622,-91.9833,0019,-2.69,-5.28,5.9257,206.9975
1993-03-20 00:35:00 UTC,2449066.524306,28.9622,-91.9833,0019,-2.78,-4.63,5.4005,210.9820
1993-03-20 00:40:00 UTC,2449066.527778,28.9622,-91.9833,0019,-3.00,-3.85,4.8808,217.9265
1993-03-20 00:45:00 UTC,2449066.531250,28.9622,-91.9833,0019,-3.58,-3.79,5.2135,223.3679
1993-03-20 00:50:00 UTC,2449066.534722,28.9622,-91.9833,0019,-4.15,-3.73,5.5799,228.0510
1993-03-20 00:55:00 UTC,2449066.538194,28.9622,-91.9833,0019,-4.78,-2.87,5.5754,239.0186
1993-03-20 01:00:00 UTC,2449066.541667,28.9622,-91.9833,0019,-5.73,-1.53,5.9308,255.0499
1993-03-20 01:05:00 UTC,2449066.545139,28.9622,-91.9833,0019,-4.48,-2.69,5.2256,239.0174
1993-03-20 01:10:00 UTC,2449066.548611,28.9622,-91.9833,0019,-6.14,-1.31,6.2782,257.9562
1993-03-20 01:15:00 UTC,2449066.552083,28.9622,-91.9833,0019,-7.25,-2.50,7.6689,250.9744
1993-03-20 01:20:00 UTC,2449066.555556,28.9622,-91.9833,0019,-9.06,3.66,9.7713,291.9974
1993-03-20 01:25:00 UTC,2449066.559028,28.9622,-91.9833,0019,-9.41,-1.19,9.4849,262.7926
1993-03-20 01:30:00 UTC,2449066.562500,28.9622,-91.9833,0019,-9.76,-0.34,9.7659,268.0049
1993-03-20 01:35:00 UTC,2449066.565972,28.9622,-91.9833,0019,-9.76,0.51,9.7733,272.9912
1993-03-20 01:40:00 UTC,2449066.569444,28.9622,-91.9833,0019,-11.94,15.29,19.3997,322.0136
1993-03-20 01:45:00 UTC,2449066.572917,28.9622,-91.9833,0019,-14.13,6.00,15.3511,293.0074
1993-03-20 01:50:00 UTC,2449066.576389,28.9622,-91.9833,0019,-17.15,5.91,18.1398,289.0143
1993-03-20 01:55:00 UTC,2449066.579861,28.9622,-91.9833,0019,-16.82,6.80,18.1426,292.0125
1993-03-20 02:00:00 UTC,2449066.583333,28.9622,-91.9833,0019,-17.40,8.87,19.5304,297.0111
1993-03-20 02:05:00 UTC,2449066.586806,28.9622,-91.9833,0019,-17.38,10.29,20.1977,300.6281
1993-03-20 02:10:00 UTC,2449066.590278,28.9622,-91.9833,0019,-17.35,11.70,20.9264,303.9938
1993-03-20 02:15:00 UTC,2449066.593750,28.9622,-91.9833,0019,-16.47,9.13,18.8313,299.0014
1993-03-20 02:20:00 UTC,2449066.597222,28.9622,-91.9833,0019,-14.50,8.37,16.7424,299.9953